Weather History for PAPH - March, 2013

Change the Weather History Date:

Friday, March 1, 2013

  Actual Average Record
Temperature  
Mean Temperature 17 °F -  
Max Temperature 26 °F 31 °F 48 °F (2003)
Min Temperature 8 °F 21 °F -13 °F (1999)
Degree Days  
Heating Degree Days 48    
Moisture  
Dew Point 14 °F    
Average Humidity 77    
Maximum Humidity 93    
Minimum Humidity 55    
Precipitation  
Precipitation 0.00 in - - ()
Sea Level Pressure  
Sea Level Pressure 29.83 in    
Wind  
Wind Speed 12 mph (SW)    
Max Wind Speed 17 mph    
Max Gust Speed 25 mph    
Visibility 10 miles    
Events      
Averages and records for this station are not official NWS values.
T = Trace of Precipitation, MM = Missing Value Source: NWS Daily Summary

Daily Weather History Graph

Daily Weather History Graph

Search for Another Location

Airport or City:

Trip Planner

Search our weather history database for the weather conditions in past years. The results will help you decide how hot, cold, wet, or windy it might be!

Date:

Astronomy

Mar. 01, 2013 Rise Set
Actual Time 8:26 AM AKST 7:08 PM AKST
Civil Twilight 7:47 AM AKST 7:46 PM AKST
Nautical Twilight 7:03 AM AKST 8:30 PM AKST
Astronomical Twilight 6:19 AM AKST 9:15 PM AKST
Moon No Moon Rise 9:20 AM AKST (3/1)
Length of Visible Light 11h 58m
Length of Day
10h 42m
Waning Gibbous, 82% of the Moon is Illuminated
Mar 1
Waning Gibbous
Mar 4
Last Quarter
Mar 11
New
Mar 19
First Quarter
Mar 27
Full

Hourly Weather History & Observations

Time (AKST) Temp. Windchill Dew Point Humidity Pressure Visibility Wind Dir Wind Speed Gust Speed Precip Events Conditions
12:16 AM 24.8 °F 12.4 °F 19.4 °F 80% 29.70 in 10.0 mi West 15.0 mph - N/A   Overcast
12:56 AM 24.8 °F 11.9 °F 15.8 °F 69% 29.72 in 10.0 mi WSW 16.1 mph - N/A   Overcast
1:16 AM 24.8 °F 11.9 °F 19.4 °F 80% 29.74 in 10.0 mi WSW 16.1 mph - N/A   Overcast
1:36 AM 24.8 °F 11.5 °F 17.6 °F 74% 29.74 in 10.0 mi West 17.3 mph - N/A   Overcast
1:56 AM 24.8 °F 12.4 °F 15.8 °F 69% 29.75 in 10.0 mi West 15.0 mph - N/A   Overcast
2:16 AM 24.8 °F 12.9 °F 15.8 °F 69% 29.76 in 10.0 mi West 13.8 mph - N/A   Overcast
3:36 AM 23.0 °F 10.1 °F 17.6 °F 80% 29.78 in 10.0 mi West 15.0 mph - N/A   Overcast
3:56 AM 23.0 °F 11.7 °F 19.4 °F 86% 29.79 in 10.0 mi West 11.5 mph - N/A   Overcast
4:16 AM 23.0 °F 11.7 °F 15.8 °F 74% 29.79 in 10.0 mi WSW 11.5 mph - N/A   Overcast
4:36 AM 23.0 °F 10.6 °F 15.8 °F 74% 29.79 in 10.0 mi WSW 13.8 mph - N/A   Overcast
4:56 AM 21.2 °F 8.3 °F 14.0 °F 74% 29.80 in 10.0 mi WSW 13.8 mph - N/A   Overcast
5:16 AM 21.2 °F 8.3 °F 15.8 °F 80% 29.80 in 10.0 mi West 13.8 mph - N/A   Overcast
5:36 AM 21.2 °F 8.9 °F 14.0 °F 74% 29.80 in 10.0 mi WSW 12.7 mph - N/A   Overcast
5:56 AM 21.2 °F 10.1 °F 14.0 °F 74% 29.81 in 10.0 mi WSW 10.4 mph - N/A   Overcast
6:16 AM 21.2 °F 8.3 °F 17.6 °F 86% 29.82 in 10.0 mi WSW 13.8 mph - N/A   Overcast
6:36 AM 21.2 °F 8.9 °F 12.2 °F 68% 29.82 in 10.0 mi WSW 12.7 mph - N/A   Overcast
6:56 AM 21.2 °F 8.9 °F 12.2 °F 68% 29.82 in 10.0 mi WSW 12.7 mph - N/A   Overcast
7:16 AM 21.2 °F 10.1 °F 14.0 °F 74% 29.83 in 10.0 mi WSW 10.4 mph - N/A   Overcast
7:36 AM 21.2 °F 8.9 °F 14.0 °F 74% 29.83 in 10.0 mi WSW 12.7 mph - N/A   Overcast
7:56 AM 21.2 °F 10.1 °F 12.2 °F 68% 29.84 in 10.0 mi SW 10.4 mph - N/A   Overcast
8:16 AM 21.2 °F 10.1 °F 12.2 °F 68% 29.84 in 10.0 mi WSW 10.4 mph - N/A   Overcast
8:36 AM 21.2 °F 10.1 °F 14.0 °F 74% 29.84 in 10.0 mi SW 10.4 mph - N/A   Overcast
8:56 AM 21.2 °F 10.1 °F 14.0 °F 74% 29.85 in 10.0 mi SW 10.4 mph - N/A   Overcast
9:16 AM 21.2 °F 10.1 °F 12.2 °F 68% 29.85 in 10.0 mi SW 10.4 mph - N/A   Overcast
9:36 AM 21.2 °F 9.5 °F 14.0 °F 74% 29.86 in 10.0 mi WSW 11.5 mph - N/A   Overcast
9:56 AM 21.2 °F 10.1 °F 15.8 °F 80% 29.86 in 10.0 mi SSW 10.4 mph - N/A   Overcast
10:16 AM 21.2 °F 10.9 °F 17.6 °F 86% 29.87 in 10.0 mi WSW 9.2 mph - N/A   Overcast
10:36 AM 21.2 °F 10.1 °F 15.8 °F 80% 29.87 in 10.0 mi SW 10.4 mph - N/A   Overcast
10:56 AM 21.2 °F 9.5 °F 15.8 °F 80% 29.87 in 10.0 mi SW 11.5 mph - N/A   Overcast
11:16 AM 21.2 °F 10.9 °F 15.8 °F 80% 29.87 in 10.0 mi SW 9.2 mph - N/A   Overcast
11:36 AM 21.2 °F 9.5 °F 15.8 °F 80% 29.88 in 10.0 mi SSW 11.5 mph - N/A   Overcast
11:56 AM 21.2 °F 8.9 °F 15.8 °F 80% 29.88 in 10.0 mi SSW 12.7 mph - N/A   Overcast
12:16 PM 21.2 °F 9.5 °F 15.8 °F 80% 29.88 in 10.0 mi SW 11.5 mph - N/A   Overcast
12:36 PM 21.2 °F 9.5 °F 17.6 °F 86% 29.88 in 10.0 mi SSW 11.5 mph - N/A   Overcast
12:56 PM 21.2 °F 8.9 °F 15.8 °F 80% 29.89 in 10.0 mi SW 12.7 mph - N/A   Overcast
1:16 PM 21.2 °F 9.5 °F 15.8 °F 80% 29.89 in 10.0 mi SSW 11.5 mph - N/A   Overcast
1:36 PM 23.0 °F 13.1 °F 15.8 °F 74% 29.89 in 10.0 mi SW 9.2 mph - N/A   Overcast
1:56 PM 23.0 °F 12.4 °F 15.8 °F 74% 29.89 in 10.0 mi SW 10.4 mph - N/A   Overcast
2:16 PM 21.2 °F 11.7 °F 15.8 °F 80% 29.89 in 10.0 mi SW 8.1 mph - N/A   Overcast
2:36 PM 23.0 °F 15.8 °F 15.8 °F 74% 29.88 in 10.0 mi SSW 5.8 mph - N/A   Overcast
2:56 PM 23.0 °F 15.8 °F 15.8 °F 74% 29.88 in 3.0 mi South 5.8 mph - N/A   Overcast
3:16 PM 21.2 °F 16.4 °F 15.8 °F 80% 29.87 in 10.0 mi SE 3.5 mph - N/A   Overcast
3:36 PM 21.2 °F - 15.8 °F 80% 29.87 in 10.0 mi Calm Calm - N/A   Overcast
3:56 PM 21.2 °F 16.4 °F 14.0 °F 74% 29.87 in 10.0 mi ESE 3.5 mph - N/A   Overcast
4:16 PM 21.2 °F - 12.2 °F 68% 29.88 in 10.0 mi Calm Calm - N/A   Overcast
4:36 PM 21.2 °F 12.6 °F 15.8 °F 80% 29.87 in 10.0 mi East 6.9 mph - N/A   Overcast
4:56 PM 21.2 °F 11.7 °F 14.0 °F 74% 29.86 in 10.0 mi East 8.1 mph - N/A   Overcast
5:16 PM 21.2 °F 12.6 °F 17.6 °F 86% 29.86 in 10.0 mi ENE 6.9 mph - N/A   Overcast
5:36 PM 21.2 °F 11.7 °F 15.8 °F 80% 29.86 in 10.0 mi ENE 8.1 mph - N/A   Overcast
5:56 PM 21.2 °F 10.1 °F 15.8 °F 80% 29.85 in 10.0 mi ENE 10.4 mph - N/A   Overcast
6:16 PM 21.2 °F 8.9 °F 14.0 °F 74% 29.84 in 10.0 mi ENE 12.7 mph - N/A   Overcast
6:36 PM 19.4 °F 10.4 °F 14.0 °F 80% 29.84 in 10.0 mi NE 6.9 mph - N/A   Scattered Clouds
6:56 PM 19.4 °F 11.5 °F 10.4 °F 68% 29.84 in 10.0 mi NE 5.8 mph - N/A   Clear
7:16 PM 15.8 °F 8.6 °F 12.2 °F 86% 29.85 in 10.0 mi East 4.6 mph - N/A   Clear
7:36 PM 15.8 °F 10.2 °F 10.4 °F 79% 29.86 in 10.0 mi SE 3.5 mph - N/A   Clear
7:56 PM 15.8 °F - 8.6 °F 73% 29.86 in 10.0 mi Calm Calm - N/A   Clear
8:16 PM 15.8 °F 8.6 °F 10.4 °F 79% 29.85 in 10.0 mi East 4.6 mph - N/A   Clear
8:36 PM 15.8 °F 6.1 °F 10.4 °F 79% 29.83 in 10.0 mi NE 6.9 mph - N/A   Clear
8:56 PM 12.2 °F -1.0 °F 3.2 °F 67% 29.83 in 10.0 mi NE 10.4 mph - N/A   Clear
9:16 PM 12.2 °F -1.8 °F 10.4 °F 92% 29.82 in 10.0 mi NE 11.5 mph - N/A   Clear
9:36 PM 10.4 °F -4.8 °F 3.2 °F 73% 29.81 in 10.0 mi NE 12.7 mph - N/A   Clear
9:56 PM 8.6 °F -6.3 °F -0.4 °F 67% 29.80 in 10.0 mi NE 11.5 mph - N/A   Clear
10:16 PM 8.6 °F -7.0 °F 3.2 °F 79% 29.78 in 10.0 mi NE 12.7 mph - N/A   Clear
10:36 PM 8.6 °F -6.3 °F 6.8 °F 92% 29.78 in 10.0 mi NE 11.5 mph - N/A   Clear
10:56 PM 10.4 °F -0.4 °F 6.8 °F 85% 29.78 in 10.0 mi ENE 6.9 mph - N/A   Clear
11:16 PM 15.8 °F 5.1 °F 14.0 °F 93% 29.77 in 10.0 mi East 8.1 mph - N/A   Partly Cloudy
11:36 PM 21.2 °F 12.6 °F 17.6 °F 86% 29.76 in 10.0 mi ESE 6.9 mph - N/A   Mostly Cloudy
11:56 PM 26.6 °F 18.2 °F 21.2 °F 80% 29.74 in 10.0 mi SE 8.1 mph 25.3 mph N/A   Mostly Cloudy